Wind_Speed
27 26 24 24 23 22 23 25 23 23 25 25 25 24 23 22 21 19 17 15 15 14 13 14 14 14 14 14 14 13 12 12 12 13 13 12 11 9 8 8 9 8 7
25 25 24 24 22 22 22 23 22 23 24 25 24 22 20 19 17 16 16 15 15 15 14 15 16 17 16 16 14 13 13 13 14 13 12 11 10 9 9 9 9 7 8
25 24 24 22 21 22 23 24 22 22 23 22 21 20 18 16 15 15 15 16 16 16 17 17 18 18 18 16 15 15 15 14 14 13 13 13 12 11 11 11 10 9 9
23 23 23 20 21 21 21 22 22 21 21 19 18 17 15 14 14 15 16 17 17 18 19 18 18 18 18 18 19 17 17 16 16 16 15 15 15 14 15 13 12 11 10
22 21 20 18 17 20 20 20 20 20 18 18 16 15 15 16 16 18 19 19 19 20 20 19 19 20 20 20 21 19 19 18 18 19 19 19 18 17 16 16 15 13 12
21 20 19 17 15 17 19 20 19 18 17 16 15 16 16 17 20 21 21 20 21 21 21 20 21 23 23 23 23 23 24 26 28 28 26 27 26 24 23 20 18 16 14
20 21 19 18 16 16 19 21 20 17 15 14 15 17 17 20 21 21 21 21 21 22 22 23 24 25 26 29 32 34 34 35 36 34 33 33 33 32 29 26 24 23 22
18 21 21 18 17 16 19 20 19 17 15 13 15 17 19 21 22 22 23 23 23 23 25 27 31 33 35 36 36 34 35 35 35 34 34 34 34 34 32 31 30 28 27
16 19 21 19 19 18 21 21 17 16 14 14 15 17 20 22 23 24 26 28 29 29 31 32 33 34 34 34 34 34 34 33 33 32 31 32 31 30 29 29 29 28 27
15 17 19 20 21 20 22 20 16 15 13 14 15 18 20 22 22 26 29 31 31 30 29 30 32 32 32 31 31 32 31 30 29 28 28 27 26 26 25 25 25 24 24
18 17 21 25 25 23 24 20 17 14 13 13 13 17 19 20 22 27 27 30 30 29 29 29 30 29 30 30 29 28 28 27 26 26 25 24 24 24 23 22 21 21 21
17 17 22 26 26 24 24 20 17 14 12 11 12 15 17 18 20 24 25 24 29 28 27 27 28 27 27 27 27 26 26 25 24 23 22 22 22 21 21 21 20 20 20
16 14 21 25 25 24 24 19 16 13 11 10 11 14 15 15 17 20 20 24 25 26 25 25 25 25 24 25 24 23 21 21 21 21 19 19 19 19 19 19 19 19 18
14 12 21 25 26 27 23 19 15 13 11 13 11 12 15 15 17 18 17 20 23 23 23 23 23 22 21 21 21 20 17 18 18 18 17 17 17 18 19 19 19 18 18
14 13 22 25 28 26 23 18 15 11 10 10 11 9 12 12 12 14 16 17 19 22 22 23 21 19 18 17 17 16 15 15 14 14 13 14 14 15 16 17 18 19 18
13 13 18 20 24 23 20 15 11 9 8 8 10 10 9 12 11 12 15 15 17 21 21 21 19 16 15 15 13 11 12 13 12 11 11 11 12 12 14 16 17 18 19
10 10 9 16 20 18 15 13 10 8 6 7 7 9 11 11 12 12 13 15 18 21 21 20 17 15 15 13 10 9 10 9 8 10 9 8 11 11 13 14 15 17 19
7 8 8 14 15 16 14 13 12 9 8 9 9 9 10 12 15 13 13 17 19 22 22 20 18 15 13 13 11 8 6 5 3 5 5 6 7 10 11 13 16 17 19
4 4 5 7 11 15 16 15 12 14 11 11 9 10 9 9 10 14 13 20 21 23 23 22 19 16 11 10 7 5 3 2 1 2 3 4 4 7 12 15 18 19 20
4 5 2 6 10 14 18 18 18 19 17 15 12 11 9 8 11 14 16 18 21 23 24 22 21 18 14 12 9 7 8 7 7 7 8 7 6 9 14 17 19 20 21
7 3 4 5 7 10 12 12 13 15 16 15 14 15 13 11 11 13 18 20 21 23 24 24 22 20 19 17 15 13 10 13 12 12 13 12 12 13 17 20 21 23 24
6 7 6 3 6 6 8 11 12 13 14 16 14 16 16 14 13 13 15 18 21 22 24 25 23 23 24 23 21 18 18 18 18 17 16 17 18 19 21 24 26 28 27
7 4 4 3 1 4 9 14 14 15 16 17 16 16 16 17 17 16 16 18 21 24 25 26 26 26 26 27 26 24 22 22 21 21 21 21 21 23 25 27 28 32 32
5 1 1 0 1 3 7 11 13 14 15 15 15 16 19 20 19 21 20 20 21 21 22 26 28 28 29 27 29 27 26 26 26 25 25 25 24 26 28 30 33 36 35
6 1 3 2 3 2 5 9 10 10 11 16 16 16 18 22 23 23 23 22 22 21 19 20 23 29 30 29 29 30 29 28 28 27 25 26 27 29 31 33 36 35 32
10 5 6 4 1 1 4 6 8 9 9 11 15 17 17 20 24 26 25 23 22 22 21 20 21 23 26 30 31 31 31 30 29 30 28 26 27 26 30 32 30 29 23
Wind_Direction
131 125 121 120 119 119 119 121 120 116 112 109 105 103 100 97 96 96 97 99 103 104 102 102 101 99 98 97 96 98 95 92 91 90 88 83 82 86 98 100 99 99 111
133 130 127 122 119 120 122 124 120 114 112 109 104 101 99 96 93 94 93 95 97 98 95 93 94 95 92 89 87 86 91 91 85 83 85 81 77 79 86 90 94 99 97
142 136 133 125 123 121 121 123 121 117 112 107 102 99 96 93 91 90 91 93 93 95 94 93 93 89 87 85 85 90 84 82 86 84 81 80 77 79 81 80 83 84 83
144 143 139 131 131 130 126 123 122 116 110 104 98 93 93 94 95 95 94 93 93 93 92 91 91 93 90 88 91 88 89 86 85 85 80 79 81 78 76 76 78 77 77
148 146 146 136 135 137 133 127 123 118 112 103 93 87 91 96 99 97 96 95 94 94 94 93 93 94 96 94 92 90 89 91 87 83 81 81 79 80 82 78 76 76 74
155 153 153 148 141 142 140 133 127 121 111 101 93 95 96 101 100 98 96 94 95 95 95 97 98 99 97 96 96 94 92 89 87 85 85 82 79 76 75 75 75 75 78
166 165 161 157 150 141 139 135 131 119 109 99 99 100 103 106 103 100 98 97 95 98 102 103 103 101 102 101 97 94 92 88 85 84 82 81 78 76 74 75 75 76 75
171 175 172 166 157 143 139 138 132 120 107 97 103 107 113 107 104 103 99 99 100 100 102 105 105 105 101 99 97 95 91 87 86 84 82 81 79 77 77 78 77 78 77
162 177 178 171 160 152 146 142 130 118 103 101 104 115 115 111 110 107 104 102 102 104 107 106 104 103 101 99 97 93 89 87 84 81 78 77 76 75 74 74 74 75 74
152 169 174 166 165 157 150 140 131 119 106 106 113 124 120 119 117 109 113 109 109 110 111 111 110 106 104 102 98 94 90 87 84 80 77 76 75 73 71 69 70 70 69
139 151 166 168 167 160 156 147 142 124 108 110 121 134 129 129 127 123 122 118 119 120 117 117 113 111 108 104 99 95 93 90 85 81 78 75 71 69 67 66 65 66 65
144 146 164 171 172 160 158 154 144 128 112 118 131 140 140 140 134 125 128 124 126 124 123 122 118 115 111 106 102 98 95 92 87 84 80 75 71 68 65 62 60 59 59
145 154 161 170 165 160 162 155 149 133 125 126 135 149 148 146 139 142 132 128 129 128 130 127 121 118 114 109 106 100 97 93 89 83 77 71 66 64 59 56 53 51 51
129 132 155 161 157 159 160 159 152 148 127 129 139 149 157 160 152 148 136 130 131 132 133 132 129 124 117 111 106 101 99 92 87 80 72 66 59 53 50 48 45 42 38
124 120 150 152 156 158 162 158 160 150 137 134 137 143 171 173 160 150 142 136 137 138 139 138 135 128 122 117 111 108 101 91 83 74 68 59 54 48 41 37 36 34 29
130 121 149 161 167 172 170 170 169 168 154 146 148 149 165 183 178 158 153 151 156 152 149 147 140 136 131 126 121 115 103 94 88 68 57 51 44 39 34 31 27 23 19
128 152 153 169 171 172 184 192 191 197 190 165 165 170 166 181 196 180 162 174 175 168 158 152 152 151 149 145 141 132 111 97 83 66 53 43 36 29 24 22 16 12 9
142 153 176 194 197 207 214 225 234 226 217 206 191 181 181 171 187 182 177 191 183 179 168 166 170 169 168 164 163 152 134 110 85 58 41 34 34 17 9 5 5 5 4
197 132 146 191 206 217 225 221 217 230 231 216 214 207 190 177 182 187 192 195 190 189 184 180 183 187 186 185 187 186 193 208 250 322 334 345 340 346 352 350 354 357 356
268 269 239 193 209 216 217 224 226 224 222 238 227 221 214 200 193 195 197 205 199 198 198 195 198 202 207 212 217 227 248 259 273 287 294 292 298 318 332 334 338 343 343
263 260 285 253 229 232 230 235 237 233 230 234 234 228 224 219 214 211 201 209 216 210 212 209 210 219 229 229 230 233 250 252 263 276 287 294 298 310 312 321 326 331 331
305 294 266 233 247 251 259 250 246 244 235 235 228 221 226 228 228 226 221 214 224 230 228 228 222 229 240 245 244 246 246 257 270 279 284 292 298 300 302 311 319 319 321
10 318 247 197 257 277 258 254 247 245 241 226 224 224 229 230 235 233 225 228 226 228 231 239 239 236 239 246 249 253 258 262 272 277 283 286 289 290 298 305 309 310 314
22 70 162 149 191 237 251 270 272 262 252 247 235 231 233 234 232 236 233 230 235 235 234 236 239 243 246 246 251 255 259 264 270 272 277 282 286 289 292 295 299 304 305
268 126 150 117 96 7 300 276 279 283 267 258 249 242 235 237 235 232 237 238 238 243 239 240 243 245 250 251 251 255 257 261 264 268 270 274 279 281 284 287 290 293 300
229 216 177 153 120 51 320 300 290 286 281 271 267 262 262 252 245 241 240 244 244 243 243 241 241 248 251 253 253 257 260 260 261 266 271 271 273 270 272 279 285 290 298
Height
3173 3174 3176 3178 3180 3181 3182 3184 3186 3187 3187 3189 3190 3190 3191 3192 3192 3192 3192 3192 3193 3192 3192 3193 3193 3193 3193 3192 3192 3192 3193 3193 3192 3192 3191 3191 3192 3192 3192 3192 3192 3192 3192
3177 3178 3180 3181 3183 3184 3185 3188 3190 3190 3191 3192 3193 3194 3195 3195 3196 3196 3195 3194 3194 3194 3194 3194 3195 3195 3195 3195 3194 3195 3195 3195 3194 3194 3193 3193 3193 3193 3193 3193 3193 3193 3193
3179 3181 3183 3184 3186 3188 3189 3190 3192 3193 3194 3195 3196 3197 3198 3198 3198 3198 3197 3197 3197 3197 3196 3196 3196 3197 3196 3197 3197 3197 3198 3197 3197 3197 3197 3196 3196 3195 3195 3195 3194 3194 3194
3182 3184 3186 3188 3189 3192 3193 3193 3195 3197 3198 3199 3200 3200 3200 3200 3200 3199 3199 3198 3199 3199 3199 3199 3199 3199 3199 3200 3200 3200 3200 3200 3200 3200 3200 3199 3199 3198 3198 3197 3196 3195 3195
3184 3187 3190 3191 3193 3195 3196 3197 3199 3200 3201 3202 3202 3202 3203 3202 3202 3201 3201 3201 3202 3201 3202 3201 3201 3202 3203 3203 3203 3203 3204 3204 3204 3203 3203 3202 3201 3201 3200 3199 3198 3198 3198
3187 3189 3192 3193 3196 3197 3198 3200 3202 3203 3204 3205 3205 3205 3205 3205 3204 3204 3204 3204 3205 3205 3204 3205 3205 3206 3206 3207 3207 3208 3208 3208 3208 3207 3207 3205 3205 3204 3203 3202 3202 3201 3201
3188 3190 3192 3194 3197 3199 3200 3202 3204 3206 3207 3208 3208 3207 3208 3208 3207 3208 3207 3207 3208 3208 3208 3209 3210 3210 3211 3211 3212 3212 3213 3213 3212 3212 3212 3210 3209 3208 3208 3207 3207 3206 3205
3190 3192 3193 3195 3199 3202 3204 3205 3207 3209 3211 3212 3211 3210 3211 3210 3210 3211 3211 3211 3212 3212 3213 3214 3215 3216 3216 3216 3217 3218 3217 3217 3217 3217 3216 3215 3214 3213 3214 3213 3212 3211 3209
3189 3192 3194 3198 3201 3204 3206 3208 3211 3213 3214 3214 3214 3214 3214 3213 3214 3214 3214 3215 3216 3217 3218 3219 3219 3220 3221 3221 3222 3221 3221 3221 3221 3222 3221 3220 3220 3219 3219 3218 3216 3215 3214
3189 3192 3195 3200 3203 3206 3208 3211 3214 3215 3216 3217 3217 3217 3217 3217 3217 3218 3218 3219 3221 3223 3224 3224 3224 3224 3225 3226 3226 3225 3225 3225 3226 3226 3226 3226 3225 3224 3224 3223 3221 3220 3218
3190 3192 3195 3200 3203 3207 3210 3213 3215 3218 3219 3220 3220 3220 3220 3220 3221 3221 3220 3222 3224 3226 3227 3229 3229 3229 3229 3229 3228 3229 3229 3230 3230 3230 3231 3231 3230 3229 3228 3227 3226 3224 3222
3192 3194 3197 3201 3204 3208 3212 3215 3218 3220 3221 3222 3223 3223 3223 3224 3224 3225 3226 3226 3228 3230 3232 3233 3233 3233 3233 3233 3232 3233 3234 3234 3233 3234 3235 3235 3234 3233 3232 3230 3229 3227 3226
3196 3197 3199 3202 3207 3210 3214 3217 3219 3221 3224 3225 3225 3225 3227 3227 3227 3228 3229 3230 3232 3234 3235 3236 3237 3237 3237 3236 3236 3236 3237 3237 3237 3237 3238 3238 3238 3236 3235 3234 3232 3230 3228
3199 3199 3201 3204 3208 3212 3215 3219 3221 3224 3225 3226 3227 3228 3229 3230 3230 3231 3233 3234 3236 3237 3239 3239 3239 3240 3240 3240 3240 3240 3240 3241 3240 3240 3241 3241 3240 3239 3238 3237 3235 3233 3231
3203 3203 3205 3208 3211 3214 3218 3220 3223 3226 3227 3228 3229 3230 3232 3233 3233 3235 3236 3237 3239 3240 3241 3242 3242 3243 3243 3244 3243 3243 3243 3243 3243 3242 3242 3243 3242 3241 3240 3239 3237 3234 3232
3207 3208 3210 3212 3215 3218 3220 3223 3225 3227 3228 3230 3231 3232 3233 3235 3236 3238 3238 3240 3241 3242 3243 3244 3245 3246 3246 3246 3246 3246 3245 3245 3244 3244 3244 3245 3244 3243 3242 3240 3238 3235 3233
3210 3213 3215 3217 3218 3221 3224 3225 3226 3228 3230 3231 3233 3234 3234 3235 3237 3239 3240 3242 3242 3244 3245 3246 3248 3248 3248 3249 3249 3248 3248 3247 3246 3246 3246 3245 3245 3244 3243 3241 3239 3236 3234
3212 3214 3216 3218 3221 3222 3224 3225 3227 3229 3230 3232 3234 3235 3235 3235 3237 3238 3240 3242 3243 3245 3246 3247 3248 3249 3250 3250 3250 3250 3249 3248 3248 3247 3246 3246 3245 3244 3242 3241 3239 3237 3234
3212 3214 3215 3218 3219 3222 3224 3225 3226 3228 3230 3232 3233 3234 3235 3235 3236 3238 3240 3241 3242 3245 3246 3247 3249 3250 3250 3250 3250 3251 3250 3249 3248 3247 3246 3245 3244 3243 3242 3240 3238 3236 3234
3211 3213 3216 3217 3219 3220 3221 3223 3224 3226 3228 3231 3232 3234 3234 3235 3237 3239 3241 3240 3241 3244 3246 3247 3248 3249 3249 3249 3249 3249 3249 3248 3247 3246 3245 3244 3243 3241 3239 3238 3236 3235 3233
3210 3212 3215 3217 3217 3218 3218 3220 3222 3224 3226 3228 3230 3232 3234 3234 3236 3238 3239 3240 3241 3242 3244 3245 3246 3248 3248 3247 3247 3247 3246 3246 3245 3244 3243 3243 3241 3239 3237 3236 3234 3233 3232
3210 3211 3213 3215 3216 3216 3216 3217 3219 3221 3224 3226 3228 3229 3231 3232 3234 3236 3237 3238 3240 3242 3244 3245 3246 3246 3246 3246 3245 3245 3245 3245 3243 3242 3241 3240 3239 3237 3235 3233 3231 3230 3229
3210 3211 3213 3214 3215 3216 3217 3217 3217 3218 3221 3223 3225 3227 3228 3229 3231 3233 3234 3235 3237 3239 3241 3243 3244 3243 3243 3243 3243 3243 3242 3242 3241 3240 3239 3237 3236 3234 3233 3230 3228 3226 3224
3211 3212 3213 3213 3214 3216 3216 3217 3218 3219 3219 3221 3223 3224 3225 3226 3227 3229 3231 3231 3232 3234 3236 3238 3239 3240 3240 3241 3240 3240 3239 3238 3237 3238 3236 3234 3233 3232 3230 3228 3226 3223 3221
3210 3211 3212 3213 3214 3215 3215 3216 3216 3217 3219 3220 3220 3221 3222 3223 3223 3224 3226 3228 3228 3229 3231 3233 3234 3235 3236 3237 3236 3236 3236 3235 3234 3233 3233 3232 3230 3228 3227 3224 3223 3218 3216
3206 3209 3210 3212 3213 3214 3214 3215 3215 3215 3215 3215 3216 3217 3220 3221 3221 3220 3221 3222 3224 3225 3226 3227 3228 3229 3230 3230 3231 3231 3231 3231 3230 3228 3227 3227 3226 3226 3224 3221 3219 3215 3212